TimeCST,TemperatureF,Dew PointF,Humidity,Sea Level PressureIn,VisibilityMPH,Wind Direction,Wind SpeedMPH,Gust SpeedMPH,PrecipitationIn,Events,Conditions,WindDirDegrees,DateUTC
12:15 AM,62.6,62.6,100,29.97,5.0,West,4.6,-,N/A,,Partly Cloudy,270,2013-02-08 06:15:00
12:35 AM,64.4,62.6,94,29.97,5.0,West,9.2,-,N/A,,Partly Cloudy,280,2013-02-08 06:35:00
12:55 AM,62.6,62.6,100,29.97,5.0,WNW,4.6,-,N/A,,Mostly Cloudy,300,2013-02-08 06:55:00
1:15 AM,62.6,62.6,100,29.98,5.0,NW,6.9,17.3,N/A,,Mostly Cloudy,310,2013-02-08 07:15:00
1:35 AM,62.6,60.8,94,29.98,8.0,NNW,11.5,16.1,N/A,,Partly Cloudy,340,2013-02-08 07:35:00
1:55 AM,62.6,59.0,88,29.99,9.0,North,11.5,16.1,N/A,,Clear,350,2013-02-08 07:55:00
2:15 AM,62.6,57.2,82,29.99,10.0,North,13.8,18.4,N/A,,Clear,350,2013-02-08 08:15:00
2:35 AM,62.6,55.4,77,30.00,10.0,North,12.7,21.9,N/A,,Clear,360,2013-02-08 08:35:00
2:55 AM,60.8,55.4,82,30.01,10.0,North,13.8,23.0,N/A,,Clear,360,2013-02-08 08:55:00
3:15 AM,59.0,53.6,82,30.01,10.0,North,13.8,-,N/A,,Clear,360,2013-02-08 09:15:00
3:55 AM,59.0,53.6,82,30.02,10.0,North,12.7,19.6,N/A,,Clear,350,2013-02-08 09:55:00
4:15 AM,57.2,51.8,82,30.02,10.0,North,12.7,20.7,N/A,,Clear,360,2013-02-08 10:15:00
4:35 AM,57.2,50.0,77,30.03,10.0,North,12.7,21.9,N/A,,Clear,350,2013-02-08 10:35:00
4:55 AM,57.2,50.0,77,30.03,10.0,North,12.7,-,N/A,,Clear,360,2013-02-08 10:55:00
5:15 AM,55.4,50.0,82,30.04,10.0,North,11.5,17.3,N/A,,Clear,360,2013-02-08 11:15:00
5:35 AM,55.4,50.0,82,30.04,10.0,North,15.0,-,N/A,,Clear,360,2013-02-08 11:35:00
5:55 AM,55.4,50.0,82,30.05,10.0,North,11.5,17.3,N/A,,Clear,10,2013-02-08 11:55:00
6:15 AM,55.4,50.0,82,30.05,10.0,North,12.7,-,N/A,,Clear,10,2013-02-08 12:15:00
6:35 AM,55.4,50.0,82,30.07,10.0,North,11.5,17.3,N/A,,Partly Cloudy,360,2013-02-08 12:35:00
6:55 AM,55.4,50.0,82,30.07,10.0,North,13.8,-,N/A,,Scattered Clouds,360,2013-02-08 12:55:00
7:15 AM,55.4,48.2,77,30.08,10.0,North,11.5,-,N/A,,Partly Cloudy,360,2013-02-08 13:15:00
7:35 AM,55.4,48.2,77,30.09,10.0,North,10.4,-,N/A,,Clear,10,2013-02-08 13:35:00
7:55 AM,55.4,48.2,77,30.11,10.0,North,11.5,-,N/A,,Clear,10,2013-02-08 13:55:00
8:15 AM,55.4,48.2,77,30.11,10.0,North,11.5,-,N/A,,Clear,10,2013-02-08 14:15:00
8:35 AM,57.2,48.2,72,30.12,10.0,NNE,9.2,19.6,N/A,,Partly Cloudy,20,2013-02-08 14:35:00
8:55 AM,57.2,48.2,72,30.12,10.0,North,16.1,-,N/A,,Clear,10,2013-02-08 14:55:00
9:15 AM,57.2,48.2,72,30.13,10.0,North,16.1,-,N/A,,Clear,10,2013-02-08 15:15:00
9:35 AM,59.0,48.2,67,30.14,10.0,NNE,12.7,-,N/A,,Clear,30,2013-02-08 15:35:00
9:55 AM,59.0,48.2,67,30.14,10.0,NNE,10.4,-,N/A,,Clear,20,2013-02-08 15:55:00
10:15 AM,59.0,48.2,67,30.15,10.0,NNE,13.8,-,N/A,,Clear,20,2013-02-08 16:15:00
10:35 AM,60.8,48.2,63,30.15,10.0,North,10.4,-,N/A,,Clear,10,2013-02-08 16:35:00
10:55 AM,62.6,48.2,59,30.15,10.0,North,10.4,17.3,N/A,,Clear,360,2013-02-08 16:55:00
11:15 AM,62.6,48.2,59,30.14,10.0,NNE,11.5,18.4,N/A,,Clear,20,2013-02-08 17:15:00
11:35 AM,64.4,48.2,56,30.14,10.0,NE,9.2,-,N/A,,Clear,40,2013-02-08 17:35:00
11:55 AM,64.4,48.2,56,30.14,10.0,NNE,8.1,16.1,N/A,,Clear,30,2013-02-08 17:55:00
12:15 PM,64.4,48.2,56,30.13,10.0,ENE,8.1,16.1,N/A,,Clear,70,2013-02-08 18:15:00
12:35 PM,66.2,48.2,52,30.12,10.0,NNE,10.4,-,N/A,,Clear,30,2013-02-08 18:35:00
12:55 PM,66.2,48.2,52,30.11,10.0,NNE,8.1,-,N/A,,Clear,20,2013-02-08 18:55:00
1:15 PM,66.2,48.2,52,30.10,10.0,North,5.8,-,N/A,,Clear,10,2013-02-08 19:15:00
1:35 PM,68.0,48.2,49,30.09,10.0,NNE,8.1,-,N/A,,Clear,30,2013-02-08 19:35:00
1:55 PM,69.8,48.2,46,30.09,10.0,North,8.1,-,N/A,,Clear,360,2013-02-08 19:55:00
2:15 PM,69.8,48.2,46,30.09,10.0,NNE,5.8,-,N/A,,Clear,30,2013-02-08 20:15:00
2:35 PM,71.6,48.2,43,30.09,10.0,North,3.5,-,N/A,,Clear,360,2013-02-08 20:35:00
2:55 PM,71.6,48.2,43,30.08,10.0,North,3.5,-,N/A,,Clear,350,2013-02-08 20:55:00
3:15 PM,71.6,48.2,43,30.07,10.0,ENE,8.1,-,N/A,,Clear,60,2013-02-08 21:15:00
3:35 PM,71.6,46.4,41,30.07,10.0,ENE,6.9,-,N/A,,Clear,70,2013-02-08 21:35:00
3:55 PM,71.6,46.4,41,30.07,10.0,NNE,9.2,-,N/A,,Clear,30,2013-02-08 21:55:00
4:15 PM,71.6,48.2,43,30.07,10.0,ENE,5.8,-,N/A,,Clear,60,2013-02-08 22:15:00
4:35 PM,69.8,48.2,46,30.07,10.0,ENE,8.1,-,N/A,,Clear,70,2013-02-08 22:35:00
4:55 PM,69.8,48.2,46,30.06,10.0,East,9.2,-,N/A,,Clear,90,2013-02-08 22:55:00
5:15 PM,68.0,48.2,49,30.07,10.0,ENE,11.5,-,N/A,,Clear,70,2013-02-08 23:15:00
5:55 PM,66.2,48.2,52,30.07,10.0,ENE,11.5,-,N/A,,Clear,60,2013-02-08 23:55:00
6:15 PM,64.4,48.2,56,30.07,10.0,ENE,16.1,-,N/A,,Clear,70,2013-02-09 00:15:00
6:55 PM,60.8,48.2,63,30.09,10.0,ENE,18.4,-,N/A,,Clear,60,2013-02-09 00:55:00
7:15 PM,59.0,48.2,67,30.09,10.0,ENE,20.7,25.3,N/A,,Clear,60,2013-02-09 01:15:00
7:35 PM,59.0,48.2,67,30.09,10.0,ENE,11.5,21.9,N/A,,Clear,70,2013-02-09 01:35:00
7:55 PM,59.0,48.2,67,30.10,10.0,ENE,13.8,-,N/A,,Clear,60,2013-02-09 01:55:00
8:15 PM,59.0,48.2,67,30.10,10.0,ENE,11.5,-,N/A,,Clear,70,2013-02-09 02:15:00
8:35 PM,57.2,48.2,72,30.10,10.0,ENE,11.5,-,N/A,,Clear,70,2013-02-09 02:35:00
8:55 PM,57.2,48.2,72,30.11,10.0,ENE,9.2,-,N/A,,Clear,70,2013-02-09 02:55:00
9:15 PM,57.2,48.2,72,30.11,10.0,East,9.2,-,N/A,,Clear,90,2013-02-09 03:15:00
9:35 PM,57.2,48.2,72,30.11,10.0,ENE,8.1,-,N/A,,Clear,70,2013-02-09 03:35:00
9:55 PM,57.2,48.2,72,30.11,10.0,East,6.9,-,N/A,,Clear,80,2013-02-09 03:55:00
10:15 PM,57.2,48.2,72,30.11,10.0,East,9.2,-,N/A,,Clear,90,2013-02-09 04:15:00
10:35 PM,57.2,48.2,72,30.11,10.0,East,8.1,-,N/A,,Clear,80,2013-02-09 04:35:00
10:55 PM,57.2,48.2,72,30.11,10.0,East,9.2,-,N/A,,Clear,90,2013-02-09 04:55:00
11:15 PM,55.4,50.0,82,30.11,10.0,East,11.5,-,N/A,,Clear,80,2013-02-09 05:15:00
11:35 PM,55.4,50.0,82,30.11,10.0,East,9.2,-,N/A,,Clear,90,2013-02-09 05:35:00